Terminal Aerodrome Forecast
Issued by NWS

Home | Current Version | Previous Version | Text Only | Print | Product List | Glossary On
Versions: 1 2 3 4 5 6 7 8 9 10 11 12
000
FTUS46 KSTO 011100
TAFSMF
TAF
KSMF 011128Z 0112/0212 20007KT P6SM SKC
     FM011600 32008KT P6SM SKC
     FM020300 17006KT P6SM SKC=

USA.gov is the U.S. government's official web portal to all federal, state and local government web resources and services.